EW8714 Weather Reports


Display with metric or nautical units.
time (UTC)temp
F
wind
direction
speed
MPH
gust
MPH
rain 1hr
in
rain 24hr
in
rain mn
in
humidity
%
barometer
mb
20260509162007 72 268 1.0 5.0 0.00 0.00 0.00 22 1014.2
20260509161509 72 268 0.0 5.0 0.00 0.00 0.00 23 1014.1
20260509161008 72 308 1.0 4.0 0.00 0.00 0.00 22 1014.2
20260509160508 72 345 2.0 4.0 0.00 0.00 0.00 23 1014.1
20260509160016 72 300 1.0 5.0 0.00 0.00 0.00 24 1014.2
20260509155508 71 297 0.0 5.0 0.00 0.00 0.00 23 1014.1
20260509155010 71 283 2.0 4.0 0.00 0.00 0.00 24 1014.0
20260509154511 70 280 0.0 6.0 0.00 0.00 0.00 24 1014.0
20260509154011 70 280 2.0 6.0 0.00 0.00 0.00 25 1014.1
20260509153511 69 271 1.0 6.0 0.00 0.00 0.00 24 1014.1
20260509153010 69 272 0.0 7.0 0.00 0.00 0.00 26 1014.2
20260509152509 69 238 3.0 10.0 0.00 0.00 0.00 27 1014.2
20260509152008 69 264 5.0 10.0 0.00 0.00 0.00 27 1014.3
20260509151512 68 240 2.0 6.0 0.00 0.00 0.00 30 1014.4
20260509151010 68 257 2.0 5.0 0.00 0.00 0.00 29 1014.3
20260509150509 67 293 2.0 5.0 0.00 0.00 0.00 31 1014.3
20260509150012 66 240 0.0 6.0 0.00 0.00 0.00 38 1014.2
20260509145510 65 239 3.0 6.0 0.00 0.00 0.00 38 1014.3
20260509145008 64 238 2.0 6.0 0.00 0.00 0.00 41 1014.4
20260509144517 63 360 2.0 4.0 0.00 0.00 0.00 47 1014.4
20260509144011 62 1 0.0 3.0 0.00 0.00 0.00 47 1014.4
20260509143512 62 3 0.0 0.0 0.00 0.00 0.00 48 1014.4
20260509143014 61 4 0.0 0.0 0.00 0.00 0.00 49 1014.4
20260509142511 60 4 0.0 0.0 0.00 0.00 0.00 52 1014.4
20260509142011 58 4 0.0 0.0 0.00 0.00 0.00 56 1014.2
20260509141519 57 4 0.0 2.0 0.00 0.00 0.00 57 1014.1
20260509141010 56 4 0.0 2.0 0.00 0.00 0.00 60 1014.1
20260509140509 56 3 0.0 1.0 0.00 0.00 0.00 60 1014.1
20260509140013 55 3 0.0 5.0 0.00 0.00 0.00 61 1014.2
20260509135513 55 3 0.0 5.0 0.00 0.00 0.00 61 1014.2
20260509135014 55 1 0.0 4.0 0.00 0.00 0.00 56 1014.3
20260509134512 55 360 0.0 0.0 0.00 0.00 0.00 59 1014.2
20260509134011 54 360 0.0 0.0 0.00 0.00 0.00 60 1014.0
20260509133511 54 360 0.0 0.0 0.00 0.00 0.00 58 1014.0
20260509133011 53 360 0.0 1.0 0.00 0.00 0.00 62 1013.9
20260509132511 53 360 0.0 1.0 0.00 0.00 0.00 61 1013.9
20260509132012 53 360 0.0 0.0 0.00 0.00 0.00 63 1013.9
20260509131520 53 360 0.0 0.0 0.00 0.00 0.00 60 1013.9
20260509131017 53 360 0.0 0.0 0.00 0.00 0.00 59 1013.8
20260509130513 52 1 0.0 5.0 0.00 0.00 0.00 59 1013.6
20260509130013 52 1 0.0 5.0 0.00 0.00 0.00 59 1013.6
20260509125514 52 211 0.0 2.0 0.00 0.00 0.00 60 1013.4
20260509125013 51 209 0.0 2.0 0.00 0.00 0.00 59 1013.2
20260509124513 50 209 1.0 4.0 0.00 0.00 0.00 66 1013.2
20260509124011 50 209 2.0 4.0 0.00 0.00 0.00 66 1013.2
20260509123510 49 209 2.0 3.0 0.00 0.00 0.00 68 1013.2
20260509123015 49 209 1.0 3.0 0.00 0.00 0.00 68 1013.2
20260509122515 49 209 1.0 3.0 0.00 0.00 0.00 68 1013.0
20260509122014 49 209 1.0 3.0 0.00 0.00 0.00 67 1012.9
20260509121522 48 209 1.0 5.0 0.00 0.00 0.00 67 1012.9
20260509121013 48 209 1.0 5.0 0.00 0.00 0.00 67 1012.8
20260509120511 48 209 3.0 5.0 0.00 0.00 0.00 67 1012.7
20260509120016 49 207 3.0 4.0 0.00 0.00 0.00 62 1012.8
20260509115515 50 207 0.0 3.0 0.00 0.00 0.00 61 1012.8
20260509115015 50 207 0.0 5.0 0.00 0.00 0.00 60 1012.7
20260509114516 49 207 1.0 5.0 0.00 0.00 0.00 64 1012.6
20260509114016 47 207 3.0 5.0 0.00 0.00 0.00 69 1012.5
20260509113515 45 207 2.0 4.0 0.00 0.00 0.00 73 1012.5
20260509113013 46 207 1.0 3.0 0.00 0.00 0.00 71 1012.4
20260509112512 47 207 2.0 3.0 0.00 0.00 0.00 68 1012.4
20260509112012 49 207 0.0 2.0 0.00 0.00 0.00 68 1012.3
20260509111517 49 207 0.0 1.0 0.00 0.00 0.00 69 1012.3
20260509111017 50 207 0.0 2.0 0.00 0.00 0.00 69 1012.3
20260509110517 49 207 0.0 3.0 0.00 0.00 0.00 70 1012.4
20260509110016 50 207 1.0 5.0 0.00 0.00 0.00 70 1012.2
20260509105516 50 207 1.0 6.0 0.00 0.00 0.00 71 1012.1
20260509105015 50 209 3.0 6.0 0.00 0.00 0.00 72 1012.1
20260509104530 49 213 1.0 3.0 0.00 0.00 0.00 74 1012.2
20260509104018 48 213 0.0 3.0 0.00 0.00 0.00 76 1012.3
20260509103518 47 214 0.0 4.0 0.00 0.00 0.00 78 1012.2
20260509103021 46 214 0.0 4.0 0.00 0.00 0.00 78 1012.1
20260509102523 46 214 1.0 2.0 0.00 0.00 0.00 75 1012.2
20260509102019 47 214 1.0 2.0 0.00 0.00 0.00 72 1012.1
20260509101520 48 214 0.0 0.0 0.00 0.00 0.00 72 1012.1
20260509101018 49 214 0.0 0.0 0.00 0.00 0.00 72 1012.2
20260509100517 49 214 0.0 0.0 0.00 0.00 0.00 72 1012.3
20260509100030 49 214 0.0 2.0 0.00 0.00 0.00 72 1012.4
20260509095525 49 214 0.0 3.0 0.00 0.00 0.00 71 1012.5
20260509095020 49 214 0.0 3.0 0.00 0.00 0.00 71 1012.3
20260509094523 49 214 0.0 1.0 0.00 0.00 0.00 71 1012.3
20260509094020 50 214 0.0 0.0 0.00 0.00 0.00 70 1012.4
20260509093520 50 214 0.0 0.0 0.00 0.00 0.00 70 1012.3
20260509093020 50 214 0.0 0.0 0.00 0.00 0.00 70 1012.3
20260509092518 50 214 0.0 0.0 0.00 0.00 0.00 69 1012.2
20260509092018 50 214 0.0 0.0 0.00 0.00 0.00 69 1012.2
20260509091522 51 214 0.0 0.0 0.00 0.00 0.00 68 1012.1
20260509091022 51 214 0.0 1.0 0.00 0.00 0.00 67 1012.0
20260509090522 51 214 0.0 2.0 0.00 0.00 0.00 66 1012.1
20260509090023 52 214 0.0 3.0 0.00 0.00 0.00 66 1012.1
20260509085522 52 214 0.0 3.0 0.00 0.00 0.00 66 1012.1
20260509085024 52 214 2.0 5.0 0.00 0.00 0.00 66 1012.1
20260509084511 52 214 2.0 5.0 0.00 0.00 0.00 65 1012.0
20260509084007 53 215 3.0 5.0 0.00 0.00 0.00 65 1012.0
20260509083505 53 215 2.0 5.0 0.00 0.00 0.00 65 1012.0
20260509083004 53 218 4.0 8.0 0.00 0.00 0.00 66 1012.1
20260509082507 52 217 4.0 8.0 0.00 0.00 0.00 68 1012.1
20260509082004 51 219 3.0 5.0 0.00 0.00 0.00 70 1012.1
20260509081508 50 217 2.0 3.0 0.00 0.00 0.00 69 1012.1
20260509081005 50 217 1.0 3.0 0.00 0.00 0.00 68 1012.1
20260509080504 51 217 1.0 3.0 0.00 0.00 0.00 68 1012.2
20260509080010 51 217 1.0 3.0 0.00 0.00 0.00 68 1012.2
20260509075512 51 217 1.0 3.0 0.00 0.00 0.00 67 1012.2
20260509075009 51 217 0.0 3.0 0.00 0.00 0.00 66 1012.3
20260509074509 52 217 1.0 2.0 0.00 0.00 0.00 65 1012.3
20260509074007 52 217 1.0 3.0 0.00 0.00 0.00 64 1012.5
20260509073506 53 217 1.0 3.0 0.00 0.00 0.00 63 1012.5
20260509073010 53 217 2.0 3.0 0.00 0.00 0.00 62 1012.6
20260509072510 54 217 0.0 3.0 0.00 0.00 0.00 61 1012.6
20260509072008 54 217 0.0 3.0 0.00 0.00 0.00 62 1012.5
20260509071516 54 218 0.0 5.0 0.00 0.00 0.00 62 1012.6
20260509071009 54 217 1.0 6.0 0.00 0.00 0.00 61 1012.6
20260509070509 54 217 2.0 6.0 0.00 0.00 0.00 60 1012.5
20260509070010 54 278 2.0 4.0 0.00 0.00 0.00 59 1012.4
20260509065515 55 278 0.0 3.0 0.00 0.00 0.00 58 1012.7
20260509065008 56 278 1.0 5.0 0.00 0.00 0.00 57 1012.7
20260509064513 56 276 2.0 7.0 0.00 0.00 0.00 56 1012.7
20260509064011 56 196 3.0 7.0 0.00 0.00 0.00 56 1012.5
20260509063511 56 176 3.0 7.0 0.00 0.00 0.00 55 1012.5
20260509063014 56 191 4.0 7.0 0.00 0.00 0.00 56 1012.5
20260509062517 56 186 3.0 9.0 0.00 0.00 0.00 56 1012.5
20260509062012 56 176 4.0 9.0 0.00 0.00 0.00 56 1012.6
20260509061515 56 188 3.0 7.0 0.00 0.00 0.00 56 1012.7
20260509061016 56 184 2.0 6.0 0.00 0.00 0.00 55 1012.7
20260509060512 57 183 2.0 7.0 0.00 0.00 0.00 55 1012.8
20260509060015 57 185 3.0 7.0 0.00 0.00 0.00 54 1012.8
20260509055513 57 178 3.0 7.0 0.00 0.00 0.00 54 1013.0
20260509055015 57 167 4.0 7.0 0.00 0.00 0.00 54 1013.0
20260509054519 57 167 2.0 5.0 0.00 0.00 0.00 54 1013.0
20260509054011 57 158 2.0 4.0 0.00 0.00 0.00 54 1013.0
20260509053511 57 158 1.0 6.0 0.00 0.00 0.00 54 1013.2
20260509053014 57 157 2.0 6.0 0.00 0.00 0.00 53 1013.2
20260509052514 57 157 2.0 6.0 0.00 0.00 0.00 54 1013.2
20260509052016 57 160 3.0 6.0 0.00 0.00 0.00 54 1013.2
20260509051517 57 146 2.0 5.0 0.00 0.00 0.00 54 1013.4
20260509051012 57 153 2.0 6.0 0.00 0.00 0.00 54 1013.4
20260509050512 57 171 2.0 6.0 0.00 0.00 0.00 53 1013.5
20260509050014 57 146 2.0 7.0 0.00 0.00 0.00 53 1013.6
20260509045510 57 167 3.0 7.0 0.00 0.00 0.00 53 1013.7
20260509045010 57 165 3.0 6.0 0.00 0.00 0.00 53 1013.9
20260509044515 57 155 2.0 6.0 0.00 0.00 0.00 53 1013.9
20260509044014 57 163 1.0 5.0 0.00 0.00 0.00 54 1013.9
20260509043515 57 162 1.0 3.0 0.00 0.00 0.00 54 1014.1
20260509043012 57 162 1.0 4.0 0.00 0.00 0.00 54 1014.2
20260509042513 57 162 0.0 5.0 0.00 0.00 0.00 54 1014.2
20260509042011 57 162 1.0 5.0 0.00 0.00 0.00 53 1014.4
20260509041515 57 161 0.0 5.0 0.00 0.00 0.00 53 1014.5
20260509041015 58 162 1.0 5.0 0.00 0.00 0.00 53 1014.6
20260509040514 58 162 2.0 5.0 0.00 0.00 0.00 52 1014.6
20260509040017 58 166 1.0 5.0 0.00 0.00 0.00 52 1014.6
20260509035515 58 117 1.0 4.0 0.00 0.00 0.00 51 1014.6
20260509035015 58 115 1.0 4.0 0.00 0.00 0.00 51 1014.6
20260509034515 58 112 1.0 3.0 0.00 0.00 0.00 52 1014.5
20260509034012 58 111 1.0 3.0 0.00 0.00 0.00 52 1014.5
20260509033512 58 110 1.0 3.0 0.00 0.00 0.00 52 1014.5
20260509033016 58 110 0.0 3.0 0.00 0.00 0.00 51 1014.5
20260509032520 58 110 1.0 2.0 0.00 0.00 0.00 51 1014.5
20260509032016 59 110 0.0 4.0 0.00 0.00 0.00 50 1014.5
20260509031512 59 110 1.0 4.0 0.00 0.00 0.00 50 1014.4
20260509031012 59 109 3.0 4.0 0.00 0.00 0.00 49 1014.4
20260509030512 59 107 1.0 4.0 0.00 0.00 0.00 48 1014.4
20260509030018 60 106 1.0 4.0 0.00 0.00 0.00 48 1014.3
20260509025517 60 106 2.0 4.0 0.00 0.00 0.00 48 1014.2
20260509025017 60 106 2.0 4.0 0.00 0.00 0.00 47 1014.2
20260509024516 61 106 1.0 3.0 0.00 0.00 0.00 46 1014.2
20260509024020 61 106 2.0 3.0 0.00 0.00 0.00 46 1014.1
20260509023520 61 106 2.0 5.0 0.00 0.00 0.00 45 1014.1
20260509023018 61 106 2.0 5.0 0.00 0.00 0.00 45 1014.1
20260509022516 61 106 2.0 4.0 0.00 0.00 0.00 45 1014.0
20260509022016 62 106 3.0 5.0 0.00 0.00 0.00 45 1014.0
20260509021521 62 106 3.0 5.0 0.00 0.00 0.00 44 1014.0
20260509021019 62 106 2.0 5.0 0.00 0.00 0.00 44 1013.9
20260509020520 63 106 3.0 5.0 0.00 0.00 0.00 43 1013.9
20260509020017 63 108 3.0 5.0 0.00 0.00 0.00 42 1013.9
20260509015517 63 108 3.0 7.0 0.00 0.00 0.00 42 1013.7
20260509015017 63 108 4.0 7.0 0.00 0.00 0.00 41 1013.7
20260509014515 64 101 3.0 7.0 0.00 0.00 0.00 41 1013.7
20260509014015 64 98 2.0 6.0 0.00 0.00 0.00 41 1013.6
20260509013517 64 98 3.0 4.0 0.00 0.00 0.00 40 1013.6
20260509013034 65 97 2.0 5.0 0.00 0.00 0.00 40 1013.6
20260509012518 65 97 2.0 5.0 0.00 0.00 0.00 39 1013.5
20260509012018 65 97 2.0 4.0 0.00 0.00 0.00 38 1013.6
20260509011517 66 97 1.0 6.0 0.00 0.00 0.00 37 1013.6
20260509011018 66 96 3.0 7.0 0.00 0.00 0.00 38 1013.5
20260509010516 67 99 2.0 7.0 0.00 0.00 0.00 38 1013.6
20260509010021 67 58 1.0 6.0 0.00 0.00 0.00 36 1013.6
20260509005521 67 110 3.0 5.0 0.00 0.00 0.00 36 1013.5
20260509005020 67 98 3.0 5.0 0.00 0.00 0.00 38 1013.6
20260509004523 67 96 2.0 6.0 0.00 0.00 0.00 37 1013.5
20260509004019 67 96 1.0 6.0 0.00 0.00 0.00 36 1013.5
20260509003520 67 94 3.0 6.0 0.00 0.00 0.00 36 1013.4
20260509003021 67 95 3.0 8.0 0.00 0.00 0.00 36 1013.5
20260509002520 68 92 3.0 8.0 0.00 0.00 0.00 36 1013.5
20260509002020 68 117 3.0 7.0 0.00 0.00 0.00 36 1013.6
20260509001523 68 86 1.0 5.0 0.00 0.00 0.00 35 1013.5
20260509001023 68 83 3.0 9.0 0.00 0.00 0.00 36 1013.6
20260509000522 68 95 4.0 9.0 0.00 0.00 0.00 35 1013.5
20260509000023 69 142 1.0 5.0 0.00 0.00 0.00 36 1013.5
20260508235522 68 131 2.0 6.0 0.00 0.00 0.00 36 1013.6
20260508235121 68 134 2.0 7.0 0.00 0.00 0.00 36 1013.6
20260508234507 68 110 4.0 9.0 0.00 0.00 0.00 36 1013.6
20260508234005 68 93 6.0 9.0 0.00 0.00 0.00 37 1013.6
20260508233505 68 89 2.0 9.0 0.00 0.00 0.00 37 1013.6
20260508233006 68 103 5.0 8.0 0.00 0.00 0.00 35 1013.7
20260508232505 68 36 4.0 8.0 0.00 0.00 0.00 37 1013.7
20260508232005 68 103 4.0 8.0 0.00 0.00 0.00 36 1013.7
20260508231525 68 130 3.0 8.0 0.00 0.00 0.00 35 1013.7
20260508231025 68 103 5.0 10.0 0.00 0.00 0.00 36 1013.6
20260508230524 69 92 4.0 11.0 0.00 0.00 0.00 38 1013.6
20260508230026 69 46 3.0 11.0 0.00 0.00 0.00 35 1013.6
20260508225509 69 73 2.0 8.0 0.00 0.00 0.00 37 1013.6
20260508225009 69 103 3.0 7.0 0.00 0.00 0.00 36 1013.6
20260508224522 69 101 2.0 7.0 0.00 0.00 0.00 35 1013.7
20260508224006 69 100 2.0 7.0 0.00 0.00 0.00 37 1013.7
20260508223511 69 96 5.0 7.0 0.00 0.00 0.00 36 1013.8
20260508223023 70 132 1.0 5.0 0.00 0.00 0.00 36 1013.9
20260508222510 69 127 1.0 6.0 0.00 0.00 0.00 35 1013.9
20260508222014 69 128 3.0 7.0 0.00 0.00 0.00 36 1013.9
20260508221508 69 92 1.0 7.0 0.00 0.00 0.00 37 1014.0
20260508221010 69 66 2.0 7.0 0.00 0.00 0.00 36 1014.1
20260508220508 69 54 1.0 10.0 0.00 0.00 0.00 35 1014.2
20260508220010 69 94 4.0 10.0 0.00 0.00 0.00 35 1014.1
20260508215509 68 352 1.0 5.0 0.00 0.00 0.00 38 1014.1
20260508215009 69 347 2.0 7.0 0.00 0.00 0.00 35 1014.2
20260508214512 70 1 3.0 7.0 0.00 0.00 0.00 35 1014.2
20260508214014 69 19 3.0 8.0 0.00 0.00 0.00 36 1014.3
20260508213513 70 122 3.0 8.0 0.00 0.00 0.00 38 1014.2
20260508213012 71 27 2.0 7.0 0.00 0.00 0.00 35 1014.2
20260508212511 70 42 2.0 7.0 0.00 0.00 0.00 36 1014.3
20260508212010 69 53 3.0 7.0 0.00 0.00 0.00 36 1014.4
20260508211513 69 41 3.0 11.0 0.00 0.00 0.00 36 1014.5
20260508211009 68 360 3.0 11.0 0.00 0.00 0.00 37 1014.4
20260508210512 67 58 4.0 9.0 0.00 0.00 0.00 42 1014.5
20260508210012 67 87 2.0 9.0 0.00 0.00 0.00 41 1014.7
20260508205518 67 117 4.0 9.0 0.00 0.00 0.00 37 1014.6
20260508205010 67 39 5.0 9.0 0.00 0.00 0.00 38 1014.7
20260508204517 67 81 3.0 9.0 0.00 0.00 0.00 39 1014.8
20260508204010 69 32 5.0 8.0 0.00 0.00 0.00 37 1014.8
20260508203510 68 68 4.0 8.0 0.00 0.00 0.00 38 1014.9
20260508203013 68 80 2.0 12.0 0.00 0.00 0.00 40 1014.9
20260508202512 67 56 4.0 12.0 0.00 0.00 0.00 38 1015.1
20260508202012 68 58 3.0 11.0 0.00 0.00 0.00 38 1015.1
20260508201512 67 23 3.0 11.0 0.00 0.00 0.00 39 1015.1
20260508201014 68 58 3.0 8.0 0.00 0.00 0.00 38 1015.2
20260508200511 67 29 3.0 6.0 0.00 0.00 0.00 41 1015.2
20260508200014 67 98 3.0 10.0 0.00 0.00 0.00 43 1015.3
20260508195513 67 37 4.0 10.0 0.00 0.00 0.00 39 1015.3
20260508195011 68 359 2.0 6.0 0.00 0.00 0.00 40 1015.3
20260508194515 68 333 3.0 6.0 0.00 0.00 0.00 36 1015.3
20260508194013 68 1 2.0 6.0 0.00 0.00 0.00 38 1015.4
20260508193513 68 54 2.0 6.0 0.00 0.00 0.00 39 1015.5
20260508193013 68 69 2.0 7.0 0.00 0.00 0.00 42 1015.6
20260508192512 66 51 3.0 7.0 0.00 0.00 0.00 40 1015.6
20260508192012 65 46 3.0 8.0 0.00 0.00 0.00 43 1015.6
20260508191514 65 44 3.0 8.0 0.00 0.00 0.00 43 1015.7
20260508191018 65 79 2.0 7.0 0.00 0.00 0.00 45 1015.8
20260508190522 65 86 3.0 7.0 0.00 0.00 0.00 44 1015.8
20260508190029 66 26 2.0 7.0 0.00 0.00 0.00 44 1015.9
20260508185517 65 20 3.0 8.0 0.00 0.00 0.00 42 1015.9
20260508185014 65 18 3.0 8.0 0.00 0.00 0.00 44 1016.0
20260508184516 65 282 4.0 8.0 0.00 0.00 0.00 46 1016.1
20260508184014 64 57 3.0 7.0 0.00 0.00 0.00 48 1016.1
20260508183513 63 25 2.0 8.0 0.00 0.00 0.00 45 1016.3
20260508183019 64 19 3.0 8.0 0.00 0.00 0.00 46 1016.5
20260508182518 64 360 2.0 6.0 0.00 0.00 0.00 47 1016.4
20260508182017 64 360 2.0 9.0 0.00 0.00 0.00 48 1016.4
20260508181522 63 1 3.0 9.0 0.00 0.00 0.00 48 1016.5
20260508181016 63 18 2.0 10.0 0.00 0.00 0.00 48 1016.6
20260508180516 62 28 4.0 10.0 0.00 0.00 0.00 49 1016.6
20260508180015 63 359 4.0 9.0 0.00 0.00 0.00 48 1016.7
20260508175514 62 40 5.0 9.0 0.00 0.00 0.00 47 1016.8
20260508175016 62 1 3.0 8.0 0.00 0.00 0.00 49 1016.8
20260508174533 62 2 4.0 9.0 0.00 0.00 0.00 48 1016.8
20260508174021 62 2 4.0 9.0 0.00 0.00 0.00 48 1016.8
20260508173517 62 1 2.0 10.0 0.00 0.00 0.00 50 1016.8
20260508173018 61 18 4.0 10.0 0.00 0.00 0.00 49 1016.9
20260508172520 61 1 4.0 11.0 0.00 0.00 0.00 48 1017.0
20260508172017 61 9 4.0 11.0 0.00 0.00 0.00 49 1017.1
20260508171521 60 65 3.0 9.0 0.00 0.00 0.00 51 1017.0
20260508171121 60 27 4.0 9.0 0.00 0.00 0.00 49 1017.1
20260508170521 61 1 3.0 9.0 0.00 0.00 0.00 50 1017.1
20260508170021 60 10 3.0 9.0 0.00 0.00 0.00 49 1017.2
20260508165519 61 350 3.0 9.0 0.00 0.00 0.00 49 1017.2
20260508165019 60 51 5.0 9.0 0.00 0.00 0.00 49 1017.3
20260508164525 60 4 4.0 9.0 0.00 0.00 0.00 51 1017.2
20260508164018 60 36 4.0 8.0 0.00 0.00 0.00 49 1017.2
20260508163519 59 28 3.0 8.0 0.00 0.00 0.00 51 1017.2
20260508163028 60 34 4.0 7.0 0.00 0.00 0.00 50 1017.1
20260508162521 59 59 3.0 6.0 0.00 0.00 0.00 53 1017.1